Tracking 22438 objects as of 25-Feb-2021
HD Live streaming from Space Station
objects crossing your sky now

DELTA 1 DEB

Track DELTA 1 DEB now!
10-day predictions


NORAD ID: 21686
Int'l Code: 1975-052JN
Perigee: 773.8 km
Apogee: 1,059.9 km
Inclination: 100.0 °
Period: 103.2 minutes
Semi major axis: 7287 km
RCS: 0.0161 m2 (small)
Launch date: June 12, 1975
Source: United States (US)
Launch site: AIR FORCE WESTERN TEST RANGE (AFWTR)

Note: This is SATELLITE DEBRIS
aabbcc
Your satellite tracking list
Your tracking list is empty




NASA's NSSDC Master Catalog

Two Line Element Set (TLE):
1 21686U 75052JN  21055.38992170  .00001155  00000-0  75658-3 0  9990
2 21686  99.9968 216.1230 0196258 137.4505 224.2052 13.95411357482512
Source of the keplerian elements: AFSPC